STARLINK-30392, 57855

Orbit data source: Space-Track

STARLINK-30392, 57855 is a payload satellite owned by SpaceX/Seattle (US) in LEO that was launched on Tue, 12 Sep 2023 UTC via an FALCON 9 launch vehicle from the Air Force Western Test Range (AFWTR). Payload-class satellites include a variety of spacecraft equipped with specific instruments for various scientific and technological missions. These include communications satellites like Starlink; space stations such as the ISS; scientific satellites like the Hubble; Earth observation satellites from companies like Planet Labs, Umbra, and HawkEye 360; GPS; miniature CubeSats for education and research; and military/defense satellites.

Loading next visibility...
Identifier
57855, 2023-141R
Orbit
LEO
Country
Flag of USUS
Related business
Manufacturer
SpaceX/Seattle
Mission
Operational Commercial Communications
Bus & Motor
STARLINK V2M, Unknown motor
Mass
730 kg wet, ~700 kg dry
Launch date (UTC)
2023-09-12 (3 years ago)
Launch vehicle
FALCON 9
Launch site
Air Force Western Test Range (AFWTR)
Object type
Payload
Rocket body
Debris
Shape & HBR
Box + 2 Pan, 17.7 m
Radar Cross Section
33.884 m², Large (>1 m²)

Expand to show TLE details & history
Last TLE update: 2 days ago

TLE from 2 days ago
0 STARLINK-30392
1 57855U 23141R   26171.37409757  .00000405  00000-0  25814-4 0  9993
2 57855  53.1589 166.8650 0001216  86.9678 273.1462 15.30196329156050
Epoch: 2026-06-20T08:58Z
TLE epoch observation values (Epoch: 2026-06-20T08:58:42.030Z)
Latitude
0.00001°
Longitude
123.60024°
Altitude
476.08 km
Speed
7.629 km/s
True Right ascension
11h 07m 27s
True Declination
0° 00' 00"
Sunlit
Object was in daylight at epoch
Visualization orbit readout
Latitude
Unknown
Longitude
Unknown
Altitude
Unknown
Speed
Unknown
Apparent Right ascension
Unknown
Apparent Declination
Unknown
Sunlit
N/A
Visualization observer readout
Local Sidereal Time
21:34:04
Azimuth
Unknown
Elevation
Unknown
Doppler factor
Unknown
Orbital elements
Apogee altitude
476.316 km
Perigee altitude
474.649 km
Semi-major axis
6,853.62 km
Eccentricity
0.00012
Inclination
53.1589°
RAAN
166.865°
Arg. of periapsis
86.9678°
True anomaly
273.13229°
Mean anomaly
273.1462°
Eccentric anomaly
273.13924°
Mean motion
3.82528 °/min
Orbital period
94.11 mins
BSTAR
0.000025814
Loading maneuver chart data...
Computing Atmospheric mass density...
Loading historical data...
Loading historical data...
Loading historical data...
Loading historical data...
Loading historical data...
Loading historical data...
Loading historical data...

Documentation

Showing up to 5 results
|